Weather Roundup
Issued by NWS Springfield, MO

Home | Current Version | Previous Version | Text Only | Print | Product List | Glossary On
Versions: 1 2 3 4 5 6 7 8 9 10 11 12 13 14 15 16 17 18 19 20 21 22 23 24 25 26 27 28 29 30 31 32 33 34 35 36 37 38 39 40 41 42 43 44 45 46 47 48 49 50
000
NZUS99 KSGF 041507
HRRSGF

HOURLY WEATHER
NATIONAL WEATHER SERVICE SPRINGFIELD MO
1000 AM CDT WED MAY 04 2016

......SGF CWA......

CITY           SKY/WX    TMP DP  RH WIND       PRES   REMARKS
SPRINGFIELD    SUNNY     63  44  50 NW15G26   29.89R
JOPLIN         SUNNY     65  48  54 NW9       29.94S
WEST PLAINS    MOSUNNY   64  46  52 W16G24    29.83F
ROLLA          SUNNY     62  47  57 NW16      29.81R
OSAGE BEACH    SUNNY     63  41  45 N10G18    29.86R
BRANSON        SUNNY     64  46  52 W12G23    29.89F

......SURROUNDING SGF CWA......

CITY           SKY/WX    TMP DP  RH WIND       PRES   REMARKS
CHANUTE        SUNNY     65  43  44 NW18      29.98R
PARSONS        SUNNY     66  47  50 N16G23    29.99R
COFFEYVILLE    SUNNY     67  45  45 N14       29.98R
EMPORIA        SUNNY     64  40  41 N14G21    30.01R
GROVE OK       SUNNY     66  52  59 W10G16    29.96S
ROGERS AR      SUNNY     65  48  54 W15       29.94F
SILOAM SPRINGS SUNNY     66  48  52 NW10G16   29.97S
HARRISON AR    SUNNY     66  46  48 W15G24    29.89F
NEAR YELLVILLE SUNNY    N/A N/A N/A W14G28    29.83S

......KANSAS AND MISSOURI......

CITY           SKY/WX    TMP DP  RH WIND       PRES   REMARKS
KANSAS CTY INT SUNNY     60  41  49 N15       29.97R
DOWNTOWN KC    SUNNY     63  40  42 NW8       29.96R
COLUMBIA       SUNNY     63  48  58 N16G22    29.85R
SEDALIA        SUNNY     63  47  55 N17       29.91R
ST JOSEPH      SUNNY     61  41  47 N15       29.99R
ST LOUIS       MOSUNNY   64  46  52 N20G25    29.77R
SPIRIT OF STL  MOSUNNY   64  48  56 N13G22    29.77R
KIRKSVILLE     SUNNY     60  45  57 N14G21    29.90R
WICHITA        SUNNY     65  44  46 N13       30.05R
TOPEKA         SUNNY     62  39  42 N15G22    30.00R
OLATHE         SUNNY     61  38  42 N15       29.96R

......TENNESSEE......

CITY           SKY/WX    TMP DP  RH WIND       PRES   REMARKS
MEMPHIS        PTSUNNY   66  50  56 SW10      29.87F
NASHVILLE      MOSUNNY   65  46  50 W6G16     29.81F

......ARKANSAS.......

CITY           SKY/WX    TMP DP  RH WIND       PRES   REMARKS
FAYETTEVILLE   SUNNY     66  51  58 W14       29.95F
FT SMITH       SUNNY     66  52  60 W13       29.96F
LITTLE ROCK    SUNNY     70  49  47 W13       29.92F

......OKLAHOMA.......

CITY           SKY/WX    TMP DP  RH WIND       PRES   REMARKS
TULSA          SUNNY     69  51  52 W10       29.97S
PONCA CITY     SUNNY     66  49  54 NW13      30.02S
MCALESTER      MOSUNNY   67  54  63 W8        30.02S
OKLAHOMA CITY  SUNNY     68  49  50 NW14      30.06S

......IOWA............

CITY           SKY/WX    TMP DP  RH WIND       PRES   REMARKS
DES MOINES     MOSUNNY   58  38  47 N17       29.97R
QUAD CITIES    MOSUNNY   56  42  59 N16       29.84R

......ILLINOIS........

CITY           SKY/WX    TMP DP  RH WIND       PRES   REMARKS
QUINCY         SUNNY     59  46  62 N14       29.84R
CHICAGO        PTSUNNY   50  38  63 N18G24    29.74R



USA.gov is the U.S. government's official web portal to all federal, state and local government web resources and services.